Flag for U.S.A. Weather past 2 weeks in Bridgewater, Massachusetts, U.S.A.

Now
79 °F

Sunny.


Feels Like: 80 °F
Forecast: 52 / 77 °F
Wind: 5 mph from North

Location: Taunton Municipal Airport

Current Time: Aug 21, 2014 at 2:34:29 PM

Latest Report: Aug 21, 2014 at 1:52 PM


Visibility: 10 mi

Pressure: 30.06 "Hg

Humidity: 50%

Dew point: 59 °F

Location of BridgewaterLocation

Historic Weather in Bridgewater — Graph

°F

Bridgewater temperature yesterday

Maximum temperature yesterday: 81 °F (at 2:52 PM)
Minimum temperature yesterday: 51 °F (at 2:58 AM)
Average temperature yesterday: 63 °F

Past Weeks' High & Low Weather Summary

 TemperatureHumidityPressure
High85 °F (Aug 10, 12:52 PM)100% (Aug 10, 6:04 AM)30.15 "Hg (Aug 10, 6:04 AM)
Low44 °F (Aug 19, 5:52 AM)34% (Aug 10, 1:52 PM)29.61 "Hg (Aug 13, 7:52 PM)
Average66 °F74%29.94 "Hg
* Reported Aug 6 12:52 PM — Aug 21 12:52 PM, Bridgewater, Weather by CustomWeather, © 2014

Note: Actual official high and low records may vary slightly from our data, if they occured in-between our weather recording intervals... More about our weather records

Advertising

Bridgewater weather history for previous 24 hours

 ConditionsComfort  
Time TempWeatherWind HumidityBarometerVisibility
12:52 PM
Aug 21
78 °FScattered clouds.N/A54%30.07 "Hg10 mi
11:52 AM77 °FSunny.6 mph62%30.07 "Hg10 mi
10:52 AM73 °FScattered clouds.5 mph69%30.08 "Hg10 mi
9:52 AM72 °FScattered clouds.No wind73%30.09 "Hg10 mi
8:52 AM67 °FPartly sunny.3 mph85%30.09 "Hg10 mi
7:52 AM63 °FSunny.No wind90%30.09 "Hg10 mi
6:52 AM57 °FPartly cloudy.No wind93%30.08 "Hg10 mi
5:52 AM52 °FClear.No wind93%30.05 "Hg8 mi
4:52 AM49 °FClear.No wind97%30.04 "Hg7 mi
3:52 AM49 °FFog.No wind93%30.05 "Hg6 mi
2:52 AM50 °FPassing clouds.No wind93%30.06 "Hg9 mi
2:00 AM48 °FFog.No wind96%30.05 "Hg3 mi
12:59 AM50 °FFog.No wind93%30.05 "Hg3 mi
11:52 PM
Aug 20
51 °FFog.No wind96%30.05 "Hg0 mi
11:03 PM52 °FFog.No wind97%30.06 "Hg3 mi
9:52 PM54 °FFog.No wind93%30.04 "Hg1 mi
8:52 PM56 °FClear.No wind93%30.05 "Hg10 mi
7:52 PM62 °FSunny.No wind80%30.03 "Hg10 mi
6:52 PM73 °FSunny.6 mph53%30.01 "Hg10 mi
5:52 PM76 °FSunny.6 mph39%30.01 "Hg10 mi
4:52 PM78 °FSunny.8 mph36%30.00 "Hg10 mi
3:52 PM79 °FSunny.6 mph35%29.99 "Hg10 mi
2:52 PM81 °FSunny.8 mph42%29.98 "Hg10 mi
Weather by CustomWeather, © 2014

See weather overviewHow to use our weather pages